GW2897 Weather Reports


Display with metric or nautical units.
time (UTC)temp
F
wind
direction
speed
MPH
gust
MPH
rain 1hr
in
rain 24hr
in
rain mn
in
humidity
%
barometer
mb
20260831171823 92 90 1.0 3.0 0.00 0.00 0.00 64 1019.9
20260831170902 91 192 1.0 4.0 0.00 0.00 0.00 64 1020.0
20260831170002 92 88 1.0 5.0 0.00 0.00 0.00 64 1020.1
20260831165402 92 43 0.0 3.0 0.00 0.00 0.00 64 1020.1
20260831164502 91 148 1.0 5.0 0.00 0.00 0.00 65 1020.2
20260831163602 90 129 2.0 5.0 0.00 0.00 0.00 63 1020.2
20260831162702 91 115 2.0 8.0 0.00 0.00 0.00 68 1020.3
20260831161802 90 59 2.0 4.0 0.00 0.00 0.00 67 1020.5
20260831160903 90 42 2.0 4.0 0.00 0.00 0.00 67 1020.6
20260831160024 89 157 1.0 4.0 0.00 0.00 0.00 68 1020.6
20260831155403 88 123 1.0 4.0 0.00 0.00 0.00 69 1020.6
20260831154523 88 118 2.0 6.0 0.00 0.00 0.00 71 1020.7
20260831153602 86 293 2.0 5.0 0.00 0.00 0.00 75 1020.8
20260831152703 87 314 1.0 6.0 0.00 0.00 0.00 74 1020.7
20260831151803 86 91 2.0 6.0 0.00 0.00 0.00 75 1020.8
20260831150902 84 294 2.0 5.0 0.00 0.00 0.00 79 1020.8
20260831150002 83 260 1.0 2.0 0.00 0.00 0.00 82 1020.7
20260831145402 82 295 1.0 3.0 0.00 0.00 0.00 83 1020.7
20260831144502 82 308 2.0 4.0 0.00 0.00 0.00 83 1020.7
20260831143603 82 290 2.0 5.0 0.00 0.00 0.00 84 1020.7
20260831142703 81 283 2.0 6.0 0.00 0.00 0.00 85 1020.8
20260831141803 81 331 1.0 4.0 0.00 0.00 0.00 86 1020.8
20260831140903 80 307 2.0 6.0 0.00 0.00 0.00 88 1020.7
20260831140003 79 314 1.0 4.0 0.00 0.00 0.00 89 1020.8
20260831135403 78 296 2.0 5.0 0.00 0.00 0.00 89 1020.8
20260831134502 78 297 2.0 4.0 0.00 0.00 0.00 92 1020.7
20260831133603 77 316 2.0 6.0 0.00 0.00 0.00 94 1020.7
20260831132702 76 314 1.0 3.0 0.00 0.00 0.00 98 1020.6
20260831131803 75 282 0.0 2.0 0.00 0.00 0.00 99 1020.5
20260831130903 74 313 0.0 2.0 0.00 0.00 0.00 99 1020.5
20260831130003 74 9 0.0 1.0 0.00 0.00 0.00 99 1020.5
20260831125403 73 17 0.0 1.0 0.00 0.00 0.00 99 1020.5
20260831124503 73 18 0.0 1.0 0.00 0.00 0.00 99 1020.5
20260831123603 72 45 0.0 1.0 0.00 0.00 0.00 99 1020.5
20260831122703 71 0 0.0 0.0 0.00 0.00 0.00 99 1020.5
20260831121824 70 0 0.0 0.0 0.00 0.00 0.00 99 1020.6
20260831120903 70 0 0.0 0.0 0.00 0.00 0.00 98 1020.6
20260831120003 69 113 0.0 3.0 0.00 0.00 0.00 98 1020.4
20260831115404 69 113 0.0 3.0 0.00 0.00 0.00 98 1020.4
20260831114503 68 0 0.0 0.0 0.00 0.00 0.00 98 1020.3
20260831113603 68 0 0.0 0.0 0.00 0.00 0.00 98 1020.3
20260831112703 68 0 0.0 0.0 0.00 0.00 0.00 97 1020.2
20260831111803 68 0 0.0 0.0 0.00 0.00 0.00 97 1020.2
20260831110903 68 0 0.0 0.0 0.00 0.00 0.00 98 1020.1
20260831110003 68 0 0.0 0.0 0.00 0.00 0.00 97 1020.1
20260831105403 68 0 0.0 0.0 0.00 0.00 0.00 97 1020.1
20260831104503 68 0 0.0 0.0 0.00 0.00 0.00 98 1020.1
20260831103603 69 0 0.0 0.0 0.00 0.00 0.00 97 1020.1
20260831102724 69 0 0.0 0.0 0.00 0.00 0.00 97 1020.1
20260831101803 69 0 0.0 0.0 0.00 0.00 0.00 98 1020.0
20260831100903 69 0 0.0 0.0 0.00 0.00 0.00 98 1019.9
20260831100000 69 0 0.0 0.0 0.00 0.00 0.00 98 1019.9
20260831095359 69 0 0.0 0.0 0.00 0.00 0.00 97 1019.8
20260831094501 68 0 0.0 0.0 0.00 0.00 0.00 97 1019.8
20260831093600 68 0 0.0 0.0 0.00 0.00 0.00 97 1019.9
20260831092700 69 0 0.0 0.0 0.00 0.00 0.00 97 1019.9
20260831091800 69 0 0.0 0.0 0.00 0.00 0.00 97 1019.9
20260831090900 69 0 0.0 0.0 0.00 0.00 0.00 97 1019.9
20260831090000 69 0 0.0 0.0 0.00 0.00 0.00 97 1019.8
20260831085400 69 0 0.0 0.0 0.00 0.00 0.00 97 1019.8
20260831084500 69 0 0.0 0.0 0.00 0.00 0.00 97 1019.8
20260831083600 70 0 0.0 0.0 0.00 0.00 0.00 97 1019.7
20260831082700 69 0 0.0 0.0 0.00 0.00 0.00 97 1019.6
20260831081821 70 0 0.0 0.0 0.00 0.00 0.00 97 1019.5
20260831080900 69 0 0.0 0.0 0.00 0.00 0.00 97 1019.4
20260831080000 69 0 0.0 0.0 0.00 0.00 0.00 97 1019.5
20260831075421 69 0 0.0 0.0 0.00 0.00 0.00 97 1019.5
20260831074500 70 0 0.0 0.0 0.00 0.00 0.00 97 1019.5
20260831072700 70 0 0.0 0.0 0.00 0.00 0.00 97 1019.3
20260831071800 70 0 0.0 0.0 0.00 0.00 0.00 97 1019.3
20260831070900 70 0 0.0 0.0 0.00 0.00 0.00 97 1019.3
20260831070000 70 0 0.0 0.0 0.00 0.00 0.00 97 1019.3
20260831065400 70 0 0.0 0.0 0.00 0.00 0.00 96 1019.4
20260831064500 70 0 0.0 0.0 0.00 0.00 0.00 97 1019.4
20260831063621 71 0 0.0 0.0 0.00 0.00 0.00 97 1019.6
20260831062700 71 0 0.0 0.0 0.00 0.00 0.00 97 1019.6
20260831061800 71 0 0.0 0.0 0.00 0.00 0.00 97 1019.6
20260831060900 71 0 0.0 0.0 0.00 0.00 0.00 97 1019.5
20260831060000 71 0 0.0 0.0 0.00 0.00 0.00 96 1019.5
20260831055400 71 0 0.0 0.0 0.00 0.00 0.00 96 1019.7
20260831054500 71 0 0.0 0.0 0.00 0.00 0.00 96 1019.8
20260831053600 71 0 0.0 0.0 0.00 0.00 0.00 96 1019.8
20260831052700 71 0 0.0 0.0 0.00 0.00 0.00 96 1020.0
20260831051801 72 0 0.0 0.0 0.00 0.00 0.00 96 1020.0
20260831050900 72 0 0.0 0.0 0.00 0.00 0.00 96 1019.9
20260831050000 72 0 0.0 0.0 0.00 0.00 0.00 96 1020.0
20260831045400 72 0 0.0 0.0 0.00 0.00 0.00 96 1019.9
20260831044500 72 0 0.0 0.0 0.00 0.00 0.00 95 1020.0
20260831043601 72 0 0.0 0.0 0.00 0.00 0.00 95 1020.1
20260831042700 72 0 0.0 0.0 0.00 0.00 0.00 95 1020.0
20260831041801 72 0 0.0 0.0 0.00 0.00 0.00 95 1020.1
20260831040000 72 0 0.0 0.0 0.00 0.00 0.00 95 1020.0
20260831035400 72 0 0.0 0.0 0.00 0.00 0.00 95 1020.0
20260831034501 72 0 0.0 0.0 0.00 0.00 0.00 94 1020.1
20260831033600 73 0 0.0 0.0 0.00 0.00 0.00 94 1020.1
20260831032701 73 0 0.0 0.0 0.00 0.00 0.00 94 1020.2
20260831031801 73 0 0.0 0.0 0.00 0.00 0.00 94 1020.1
20260831030900 73 0 0.0 0.0 0.00 0.00 0.00 94 1020.1
20260831030001 73 0 0.0 0.0 0.00 0.00 0.00 94 1020.0
20260831025422 74 0 0.0 0.0 0.00 0.00 0.00 94 1020.0
20260831024501 74 0 0.0 0.0 0.00 0.00 0.00 93 1020.1
20260831023622 74 0 0.0 0.0 0.00 0.00 0.00 93 1020.1
20260831022701 74 0 0.0 0.0 0.00 0.00 0.00 93 1020.1
20260831021822 74 0 0.0 0.0 0.00 0.00 0.00 93 1020.1
20260831020901 74 0 0.0 0.0 0.00 0.00 0.00 92 1020.0
20260831020001 74 0 0.0 0.0 0.00 0.00 0.00 91 1019.8
20260831015401 75 0 0.0 0.0 0.00 0.00 0.00 92 1019.9
20260831014501 75 0 0.0 0.0 0.00 0.00 0.00 91 1019.9
20260831013601 75 0 0.0 0.0 0.00 0.00 0.00 91 1020.0
20260831012701 76 0 0.0 0.0 0.00 0.00 0.00 90 1019.9
20260831011822 76 0 0.0 0.0 0.00 0.00 0.00 90 1019.7
20260831010901 76 0 0.0 0.0 0.00 0.00 0.00 89 1019.6
20260831010001 77 0 0.0 0.0 0.00 0.00 0.00 89 1019.6
20260831005401 77 0 0.0 0.0 0.00 0.00 0.00 89 1019.5
20260831004522 77 0 0.0 0.0 0.00 0.00 0.00 88 1019.4
20260831003601 78 0 0.0 0.0 0.00 0.00 0.00 88 1019.4
20260831002722 79 0 0.0 0.0 0.00 0.00 0.00 87 1019.3
20260831001801 79 0 0.0 0.0 0.00 0.00 0.00 85 1019.3
20260831000901 80 0 0.0 0.0 0.00 0.00 0.00 84 1019.3
20260831000001 82 0 0.0 0.0 0.00 0.00 0.00 83 1019.2
20260830235401 82 0 0.0 0.0 0.00 0.00 0.00 82 1019.1
20260830234523 83 0 0.0 0.0 0.00 0.00 0.00 81 1019.0
20260830233601 84 113 0.0 2.0 0.00 0.00 0.00 79 1019.2
20260830232701 86 124 0.0 3.0 0.00 0.00 0.00 77 1019.2
20260830231801 86 118 0.0 3.0 0.00 0.00 0.00 76 1019.1
20260830230901 87 104 0.0 3.0 0.00 0.00 0.00 74 1019.0
20260830230001 87 118 1.0 2.0 0.00 0.00 0.00 74 1018.9
20260830225401 87 122 1.0 3.0 0.00 0.00 0.00 74 1018.8
20260830224501 87 101 1.0 5.0 0.00 0.00 0.00 74 1018.7
20260830223602 87 130 0.0 3.0 0.00 0.00 0.00 75 1018.7
20260830222701 86 71 1.0 5.0 0.00 0.00 0.00 74 1018.6
20260830221801 87 59 1.0 5.0 0.00 0.00 0.00 73 1018.6
20260830220923 86 131 0.0 2.0 0.00 0.00 0.00 76 1018.7
20260830220023 87 116 0.0 3.0 0.00 0.00 0.00 74 1018.7
20260830215401 88 106 1.0 5.0 0.00 0.00 0.00 72 1018.8
20260830214523 89 119 1.0 5.0 0.00 0.00 0.00 71 1018.8
20260830213602 89 118 3.0 8.0 0.00 0.00 0.00 70 1018.7
20260830212701 90 104 2.0 7.0 0.00 0.00 0.00 68 1018.7
20260830211802 90 113 2.0 5.0 0.00 0.00 0.00 68 1018.7
20260830210923 91 109 2.0 6.0 0.00 0.00 0.00 67 1018.6
20260830210002 90 114 2.0 6.0 0.00 0.00 0.00 67 1018.8
20260830205402 90 125 2.0 5.0 0.00 0.00 0.00 68 1018.9
20260830204501 89 120 1.0 4.0 0.00 0.00 0.00 70 1019.0
20260830203622 88 114 1.0 3.0 0.00 0.00 0.00 74 1019.1
20260830202701 89 117 0.0 3.0 0.00 0.00 0.00 70 1019.1
20260830201802 90 105 1.0 5.0 0.00 0.00 0.00 67 1019.2
20260830200902 90 21 2.0 5.0 0.00 0.00 0.00 65 1019.1
20260830200002 89 314 1.0 4.0 0.00 0.00 0.00 66 1019.4
20260830195402 90 77 1.0 3.0 0.00 0.00 0.00 66 1019.4
20260830194523 89 54 1.0 4.0 0.00 0.00 0.00 68 1019.5
20260830193602 89 273 0.0 2.0 0.00 0.00 0.00 67 1019.6
20260830192702 87 225 0.0 1.0 0.00 0.00 0.00 74 1019.8
20260830191802 87 312 0.0 1.0 0.00 0.00 0.00 73 1020.0
20260830190902 87 324 2.0 4.0 0.00 0.00 0.00 72 1020.1
20260830190002 88 295 0.0 3.0 0.00 0.00 0.00 72 1020.0
20260830185402 88 107 1.0 3.0 0.00 0.00 0.00 71 1020.1
20260830184502 88 102 1.0 4.0 0.00 0.00 0.00 69 1020.2
20260830183602 89 176 1.0 4.0 0.00 0.00 0.00 70 1020.4
20260830182702 88 107 0.0 3.0 0.00 0.00 0.00 71 1020.6
20260830181802 89 88 1.0 3.0 0.00 0.00 0.00 71 1020.7
20260830180902 87 338 1.0 5.0 0.00 0.00 0.00 73 1020.8
20260830180002 87 84 2.0 4.0 0.00 0.00 0.00 73 1020.9
20260830175402 87 359 2.0 4.0 0.00 0.00 0.00 73 1021.0
20260830174502 88 330 1.0 5.0 0.00 0.00 0.00 75 1021.0
20260830173602 88 338 1.0 8.0 0.00 0.00 0.00 71 1021.2
20260830172703 87 94 1.0 5.0 0.00 0.00 0.00 74 1021.2